sat.trackr.live / text

‹ back to catalog

GEOSCAN 1 (RS92S1)

NORAD 64880 · 2025-155E

PAYLOAD ACTIVE UNKNOWN

§ Identity

Operator
Country
CIS
Launch date
2025-07-25
Launch site
VOSTO
Launch vehicle
Mass (kg)
RCS (m²)

Purposes: comms

External: N2YO · Heavens-Above · Gunter

§ Orbital elements

Epoch: 2026-05-25T04:04:55.089120Z

Period
94.11 min
Inclination
97.4538°
Eccentricity
0.0005530
Mean motion
15.30204494 rev/d
Perigee alt
471.4 km
Apogee alt
479.0 km
Semi-major
6,853.3 km
B*
3.5699e-4
RAAN
113.7720°
Arg perigee
254.5324°
Mean anomaly
105.5306°
Rev number
7,725

§ Raw data

GEOSCAN 1 (RS92S1)1 64880U 25155E   26145.17008205  .00010363  00000+0  35699-3 0  99922 64880  97.4538 113.7720 0005530 254.5324 105.5306 15.30204494 77256

JSON: /api/v1/satellites/64880 · /tle

For live sub-satellite position, see the globe view (requires WebGL).

§ Visibility from observer

Set your observer location to see the next 7 days of passes ≥ 10°. The values pass through the URL so the page stays shareable.

No JS? Fill the form by hand. The geolocation button needs JavaScript.

§ Radio — SatNOGS DB

ModeDescriptionDownlinkUplink
GFSK Mode U - GFSK9k6 - AX.25 Beacon and Ham Payload (Geoscan framing) 435.970 MHz

1 transmitter · refreshed weekly from db.satnogs.org